Theta_e
311 311 311 311 310 310 309 309 309 309 309 309 309 309 309 310 310 310 310 310 311 311 311 312 313 313 313 313 313 314 313 312 312 311 309 307 306 305 305 304 304 303 303 302 302 301 300 298 296 295 294 292 290 289 289 288 288 288 288 288 287 287 287 287 286 286 286 286 286 286 286 285 285 285 285 285 285 285 285 285 286 285 285 286 286
311 311 311 311 310 310 309 309 309 309 309 309 309 308 308 309 309 309 309 309 310 311 311 311 311 311 311 311 311 311 310 310 310 309 308 306 304 303 303 303 302 302 302 301 300 299 298 297 295 293 292 291 290 289 289 288 288 287 287 287 286 286 286 287 286 285 285 286 285 285 285 285 285 285 285 285 285 285 285 285 285 285 285 285 285
310 311 311 311 310 310 309 309 309 308 308 308 308 308 308 308 308 308 308 309 309 309 310 310 310 310 309 309 309 309 308 307 307 308 307 305 303 302 302 302 301 301 301 300 299 298 297 296 294 292 290 290 289 288 288 287 287 287 286 286 287 287 287 288 287 286 286 285 286 285 285 285 285 285 285 285 285 284 285 285 285 285 285 285 285
310 310 311 310 310 309 309 308 308 308 308 308 308 307 307 306 306 307 307 307 307 307 308 308 309 308 308 308 307 306 306 306 305 305 305 304 302 302 301 301 300 300 300 300 299 297 295 294 293 291 289 289 288 287 287 287 286 286 286 287 288 288 288 288 288 287 286 286 286 287 286 284 284 284 284 284 284 284 285 285 285 285 285 285 285
310 310 310 310 309 309 308 308 308 307 307 307 307 307 306 305 305 306 306 306 306 306 306 306 306 307 307 307 306 305 305 305 304 303 303 302 302 301 300 300 299 299 299 299 298 297 295 294 293 290 289 288 287 287 286 286 286 287 287 288 289 289 289 288 288 288 288 287 287 288 287 286 285 284 284 284 284 284 285 285 285 285 285 285 285
309 309 310 310 309 309 308 307 307 307 307 307 306 306 305 305 305 305 305 305 304 304 304 305 305 306 307 306 305 304 304 303 302 302 301 300 299 300 299 298 298 298 298 298 297 296 295 294 293 290 289 289 287 286 286 286 287 288 289 290 290 290 289 289 289 289 289 288 287 287 287 287 286 285 284 284 284 284 284 285 285 285 285 285 285
308 309 309 309 309 309 308 307 307 307 306 306 305 305 304 304 304 304 304 303 303 303 303 303 304 305 306 304 302 302 301 300 299 299 298 298 297 297 297 296 296 296 296 296 295 294 294 293 292 290 289 289 287 286 287 288 289 290 291 291 291 291 290 290 290 289 289 288 287 287 286 286 285 285 285 284 284 284 284 284 284 285 285 285 285
308 308 308 308 309 308 307 307 306 306 306 305 305 304 304 304 304 304 303 303 302 302 302 303 304 304 303 302 300 299 299 298 297 296 296 296 295 295 295 294 295 295 294 294 293 292 292 291 290 289 288 288 287 288 289 290 291 292 292 292 292 291 291 290 290 289 288 287 287 286 285 285 285 285 285 284 284 284 284 283 283 284 284 284 284
307 307 307 307 308 307 307 306 306 305 305 304 304 303 303 303 303 302 302 302 301 301 302 303 303 302 301 299 298 298 297 296 296 296 295 294 294 294 294 293 293 293 293 292 290 290 290 289 289 288 288 287 288 289 291 292 293 293 292 292 292 291 290 290 289 289 288 286 285 285 285 285 285 285 285 284 284 284 284 284 283 283 283 283 283
306 306 306 306 306 306 306 305 305 305 304 304 303 302 302 302 302 301 301 301 300 300 300 300 300 300 299 298 297 297 296 297 297 297 295 294 293 293 292 292 292 292 291 290 288 288 288 288 288 287 287 288 289 291 291 292 293 293 293 292 292 291 290 290 289 289 288 286 285 285 285 285 285 285 285 285 284 284 284 284 283 283 283 282 283
306 306 306 306 305 305 305 305 304 304 303 303 302 302 301 301 300 300 300 299 299 298 298 297 297 297 297 297 296 296 296 297 297 295 293 291 292 291 291 291 291 290 290 289 287 287 286 287 287 286 287 289 290 291 291 291 292 292 292 292 292 291 290 289 289 288 287 285 285 285 285 284 285 284 284 284 284 284 284 283 283 282 282 282 282
306 305 305 305 304 304 304 304 304 303 302 302 301 301 300 300 299 299 299 298 297 296 296 296 296 296 296 295 295 295 296 296 295 294 292 290 290 289 290 290 290 289 289 288 287 286 286 286 286 286 288 289 290 290 290 291 292 292 292 292 291 291 290 289 289 288 287 285 285 285 285 284 285 284 284 284 283 283 283 282 282 281 282 281 281
305 305 305 304 303 304 303 303 303 302 301 301 300 300 299 299 298 298 298 298 297 295 295 295 295 295 294 294 294 295 296 295 294 293 291 289 288 288 289 289 289 289 287 287 286 286 286 286 285 286 288 289 289 290 290 291 292 292 291 291 291 290 290 289 288 287 287 286 285 285 285 285 284 284 283 283 282 282 282 281 281 281 281 281 281
304 304 304 303 303 303 302 302 302 301 301 300 299 299 298 298 298 297 297 297 296 295 294 294 294 294 294 294 293 294 294 294 293 291 290 288 287 287 288 288 288 288 287 286 286 286 286 286 286 286 288 289 289 290 290 291 291 291 291 291 290 290 290 289 289 288 287 287 286 285 285 285 284 283 283 283 282 282 282 282 282 282 282 282 282
304 304 303 302 302 302 301 301 301 300 299 299 298 298 298 297 297 296 296 296 295 294 294 294 294 293 293 293 292 292 293 293 292 291 290 289 288 287 287 287 287 287 286 286 286 287 287 286 286 287 288 289 289 290 291 291 291 291 291 290 290 289 289 289 288 288 287 286 285 284 284 283 283 283 282 282 282 282 282 282 282 282 282 281 281
303 302 301 301 301 301 300 300 300 299 298 297 297 297 297 296 296 295 294 294 294 293 293 293 293 292 292 292 291 291 291 291 291 290 290 288 287 287 287 286 286 286 285 285 286 286 286 286 287 287 288 289 289 290 291 291 291 291 290 290 289 289 288 287 287 286 285 284 283 282 282 282 282 282 282 282 282 282 282 282 281 281 281 280 280
301 300 300 300 300 300 300 299 298 298 297 296 296 296 295 295 294 294 293 292 292 292 291 291 292 291 291 290 289 289 289 289 289 288 287 287 286 286 286 285 285 285 285 285 285 286 286 287 287 288 289 289 289 290 291 291 291 290 289 289 288 287 286 285 284 283 282 282 281 281 281 281 281 282 282 281 281 281 281 281 281 281 280 280 280
299 299 299 299 299 298 298 298 297 296 296 295 295 295 295 294 293 293 292 291 291 290 290 290 289 289 289 288 287 288 288 287 286 286 286 285 285 285 285 285 285 284 284 284 285 286 286 287 288 289 289 289 290 291 291 290 290 290 289 288 287 285 284 283 282 282 281 281 281 281 281 281 281 281 281 281 281 281 281 281 281 280 280 280 280
298 298 298 297 297 297 297 296 296 296 295 295 294 294 293 293 292 291 290 290 290 289 288 288 288 287 287 287 287 287 287 286 285 285 285 285 285 285 285 285 284 284 284 284 284 285 286 287 288 288 289 290 290 290 290 290 289 289 288 286 284 283 282 282 282 282 282 282 282 282 282 281 281 281 281 281 281 281 280 280 280 280 280 279 279
297 297 296 296 296 296 295 295 295 295 294 294 293 293 292 291 290 289 289 289 288 287 287 287 287 287 287 287 286 286 285 285 284 284 284 284 284 284 285 285 284 284 284 284 284 285 286 286 287 288 289 290 290 289 289 289 288 287 285 284 283 282 282 282 282 282 282 282 282 282 282 281 282 282 282 281 281 280 280 279 279 279 279 278 278
296 295 295 295 294 294 294 294 294 294 293 293 292 291 291 290 289 288 288 287 287 287 286 286 286 286 286 285 284 284 284 283 283 283 284 284 284 284 284 285 284 284 284 284 285 285 286 287 288 289 289 289 289 288 288 287 286 285 284 283 283 282 282 282 282 282 282 281 281 281 281 281 281 281 281 280 280 279 278 278 278 277 277 277 277
294 294 294 293 293 293 293 293 293 292 292 291 291 289 289 289 288 287 287 287 286 286 285 285 285 284 284 283 283 283 283 283 283 284 284 283 283 283 284 284 285 285 285 285 285 286 287 288 289 289 289 288 287 287 286 285 284 284 283 283 282 282 282 282 282 281 281 280 280 280 280 280 280 280 279 279 278 277 277 276 276 275 275 275 275
293 293 292 292 292 292 292 292 291 291 291 290 290 288 287 287 287 286 286 286 285 284 284 284 283 283 282 282 282 282 282 282 283 284 284 283 283 283 284 284 284 285 285 286 287 288 288 289 288 287 287 286 286 285 284 283 283 282 282 282 282 281 281 281 280 280 279 279 279 279 279 279 278 278 277 277 276 275 275 274 274 273 273 273 272
292 291 291 291 290 290 290 290 290 290 289 289 289 288 287 286 286 285 285 285 284 283 283 283 282 282 281 281 281 282 282 283 284 284 284 283 283 283 283 284 284 286 287 288 289 288 288 287 286 286 285 285 284 283 282 281 281 281 280 280 280 280 280 279 279 278 278 278 278 277 277 277 277 276 275 275 274 274 273 272 272 272 272 271 271
290 290 289 289 289 289 289 289 289 289 288 288 288 287 286 285 285 284 284 284 283 283 282 282 282 281 281 281 281 282 283 285 285 286 285 284 283 283 284 285 287 288 288 288 288 287 286 286 285 284 284 283 282 281 280 280 280 279 279 279 279 278 278 278 277 277 277 276 276 276 276 275 275 274 274 273 273 272 271 271 271 271 270 270 270
289 289 288 288 288 288 288 287 287 287 287 287 287 286 285 285 284 284 283 283 283 283 282 282 281 281 281 281 281 282 284 285 286 286 285 284 284 285 286 287 287 287 287 287 286 286 285 285 284 283 282 281 280 280 279 279 278 278 278 278 277 277 277 276 276 276 275 275 275 275 274 274 273 273 272 271 271 270 270 270 270 269 269 269 268
288 287 287 287 287 287 287 286 286 286 286 285 285 285 284 284 284 283 283 283 283 283 282 282 281 281 281 281 281 282 283 285 286 286 286 285 285 285 286 286 286 286 285 285 284 284 284 283 283 282 280 279 279 279 278 278 278 277 277 276 276 276 275 275 274 274 274 274 274 273 273 272 272 271 270 270 269 269 269 269 269 268 268 267 267
287 286 286 286 286 286 286 285 285 285 285 284 284 284 284 284 284 283 283 283 283 283 282 282 282 281 281 281 280 281 282 283 284 285 285 285 285 285 285 285 285 285 284 284 284 283 283 282 280 280 279 279 278 278 277 277 277 277 276 276 275 275 274 273 273 273 273 273 272 272 271 270 270 269 269 268 268 268 268 268 267 267 266 266 266
286 286 286 286 286 285 285 285 285 284 284 284 284 284 284 284 284 284 283 283 284 283 283 282 282 282 281 281 281 281 281 282 283 283 283 283 284 285 285 285 284 284 284 284 283 282 281 280 279 279 278 278 277 277 277 276 276 276 275 275 274 274 273 273 272 272 272 271 271 270 269 269 268 268 268 267 267 267 266 266 266 266 265 265 265
286 286 285 285 285 285 285 285 284 284 284 284 284 284 284 284 284 284 284 284 283 283 283 283 282 282 282 281 281 281 281 281 281 282 282 283 284 285 285 284 284 284 283 282 281 280 279 279 279 278 278 278 277 277 277 276 276 275 275 274 274 273 272 272 271 271 271 270 269 269 268 267 267 267 267 266 266 265 265 265 265 265 264 265 265
286 285 285 285 285 285 285 284 284 284 284 284 283 283 283 283 283 284 284 284 284 283 283 283 283 283 283 282 282 282 282 282 282 282 283 284 284 283 283 282 282 281 280 280 280 279 279 279 278 278 278 277 277 277 276 276 275 275 274 274 273 272 271 271 271 270 270 269 268 268 267 267 266 266 266 265 265 265 264 264 264 264 264 264 264
286 285 285 285 285 285 284 284 284 283 283 283 283 283 282 282 282 282 283 284 284 284 284 284 284 284 284 284 285 284 283 283 284 284 284 283 282 281 280 280 280 279 279 280 280 279 279 278 278 277 277 277 276 276 276 275 275 274 274 273 272 271 271 270 270 269 268 268 267 267 266 266 266 265 265 264 264 264 264 263 263 263 264 264 264
286 285 285 285 285 284 284 284 283 283 283 283 283 283 282 281 281 281 281 282 282 283 283 284 284 284 284 284 285 285 284 283 282 282 281 280 280 280 280 280 280 279 279 279 279 279 278 278 278 277 277 276 276 275 275 274 274 273 273 272 271 271 270 269 269 268 268 267 267 267 266 265 265 265 264 264 263 263 263 263 263 263 263 263 263
286 285 285 285 284 284 283 283 283 283 283 283 283 282 282 281 281 280 280 280 281 281 281 281 282 282 282 281 282 282 281 280 280 280 280 280 280 280 280 280 280 280 279 279 279 278 278 277 277 277 276 276 275 275 274 273 273 272 272 271 270 270 269 268 268 268 267 267 266 266 265 265 265 264 264 263 263 263 263 262 262 263 263 262 262
285 285 285 285 284 284 283 283 283 283 283 283 283 282 282 281 281 280 280 280 280 280 280 280 280 280 281 280 280 280 280 280 280 280 280 280 280 280 280 280 280 279 279 278 278 278 277 277 277 276 276 275 275 274 273 273 272 272 271 270 269 268 268 268 267 267 267 267 266 266 265 265 264 263 263 263 263 263 262 262 262 262 262 262 262
285 284 284 284 284 283 283 283 283 283 283 283 283 282 281 281 280 280 280 279 279 279 280 280 280 280 280 280 280 280 280 280 280 280 280 280 279 279 279 279 279 278 278 277 277 277 277 277 276 276 275 275 274 273 273 272 271 271 270 269 268 268 268 267 267 267 267 266 266 265 265 264 264 263 263 263 263 263 262 262 262 262 261 261 261
285 284 284 284 284 283 283 283 283 284 283 283 282 282 281 281 280 280 279 279 279 279 279 280 280 280 280 279 280 280 280 280 280 279 279 279 278 278 278 278 278 278 277 277 277 276 276 276 275 275 275 274 273 273 272 271 270 269 269 268 268 268 267 267 267 267 266 266 265 265 264 264 264 263 263 263 263 263 262 262 261 261 261 261 261
284 284 284 284 284 283 283 283 283 283 283 282 282 282 281 280 280 279 278 278 278 278 279 279 279 279 278 278 278 278 278 278 278 277 277 277 276 276 276 276 277 277 277 277 276 276 275 275 275 274 274 273 273 272 271 270 269 269 268 268 268 267 267 267 266 266 266 266 265 265 264 264 264 263 263 263 263 263 262 262 261 261 261 261 261
284 284 284 284 284 284 284 283 283 282 282 282 281 281 281 280 279 278 278 278 277 277 278 278 278 277 277 277 277 277 277 277 276 276 276 276 276 276 275 275 275 276 276 275 275 275 274 274 274 273 273 272 271 270 270 269 269 268 268 268 267 267 267 266 266 266 265 265 265 264 264 264 263 263 263 263 263 262 262 261 261 261 261 261 261
283 283 283 283 283 283 284 283 282 282 282 281 281 281 280 279 279 278 277 277 277 277 277 277 276 276 276 276 276 276 276 276 275 275 275 275 275 275 275 275 275 275 274 274 274 273 273 272 272 271 271 270 269 269 269 269 269 268 268 268 267 267 266 266 266 265 265 265 265 264 264 264 263 263 263 263 263 262 262 261 261 261 261 261 261
282 282 282 282 283 283 283 282 282 281 281 281 280 280 280 279 279 278 277 277 276 276 276 276 275 275 276 275 275 275 275 275 275 275 275 274 274 274 273 273 273 273 273 272 272 272 271 271 270 270 269 269 268 268 268 268 268 268 268 267 267 266 266 265 265 265 265 264 264 264 264 263 263 262 263 263 262 262 261 261 261 261 261 260 260
281 281 281 281 281 282 281 281 280 280 280 280 280 279 279 279 278 277 276 276 276 275 275 275 274 274 275 274 274 273 274 274 274 274 273 273 273 272 272 272 272 271 271 271 270 270 270 269 269 269 269 268 268 268 268 268 268 267 267 267 266 266 266 265 265 265 264 264 264 263 263 263 262 262 262 262 262 262 262 261 261 261 260 260 260
281 280 280 279 280 280 279 279 279 278 278 278 278 278 278 278 277 277 276 275 275 275 274 274 273 273 273 273 273 272 272 272 273 273 273 272 272 271 271 270 270 270 270 270 269 269 268 268 268 268 268 268 268 268 268 267 267 267 267 266 266 266 265 265 265 264 264 264 263 263 263 263 262 262 262 262 262 261 261 261 261 260 260 260 260
280 279 279 278 278 278 278 278 277 277 277 277 277 276 276 276 276 275 275 275 274 274 274 273 273 272 272 272 271 271 271 271 271 272 271 271 271 270 270 269 269 269 269 268 268 268 267 267 267 267 267 267 267 267 267 267 266 266 266 266 265 265 265 265 265 264 264 263 263 263 262 262 262 262 262 262 261 261 261 261 260 260 260 260 260
279 278 278 277 277 277 277 276 276 276 276 276 275 275 275 275 275 275 275 274 274 273 272 272 272 271 271 270 270 270 269 270 270 270 270 270 270 269 269 269 269 268 268 267 267 267 266 266 267 267 267 267 267 266 266 266 266 266 265 265 265 265 265 265 264 264 263 262 262 262 262 262 261 261 261 261 261 260 260 260 260 260 259 259 259
278 278 277 277 276 276 275 275 275 275 275 275 275 274 274 274 274 274 274 273 273 272 271 271 271 271 271 270 270 269 269 269 269 269 269 269 268 268 268 268 268 267 267 266 266 266 266 266 266 266 266 266 266 266 265 265 265 265 265 265 265 265 264 264 263 263 262 262 262 261 261 261 261 260 260 260 260 260 259 259 259 259 259 259 259
277 277 277 276 276 275 275 274 275 274 274 274 274 273 273 272 272 272 272 271 271 271 270 270 270 271 271 270 270 269 269 269 269 268 268 267 267 267 267 267 266 266 266 265 265 265 265 265 266 266 265 265 265 265 265 264 264 264 264 264 264 264 264 263 263 262 262 262 261 261 261 260 260 260 260 259 259 259 259 259 259 259 258 258 258
276 276 276 276 275 274 273 273 273 273 272 272 272 271 271 271 271 270 270 270 270 270 270 270 270 270 270 270 270 269 269 268 268 267 267 267 266 266 266 265 265 265 265 265 265 265 265 265 265 265 265 265 265 265 264 264 264 264 264 264 264 263 263 263 262 262 262 261 261 261 260 260 260 260 260 260 259 259 259 258 258 258 258 258 258
275 275 275 274 274 273 272 272 272 272 271 271 271 270 270 270 270 270 270 270 270 270 270 270 270 269 269 269 269 268 267 267 266 266 266 266 265 265 265 265 265 265 265 265 265 265 265 265 265 265 265 265 265 264 264 264 264 264 264 264 263 263 263 262 262 262 261 261 261 261 261 261 261 260 260 260 260 259 259 258 258 258 258 257 257
274 274 273 273 272 272 271 271 271 271 271 271 271 270 270 270 270 270 270 270 270 269 269 269 268 268 268 267 267 266 266 266 265 265 265 265 265 265 265 264 264 264 264 265 265 265 265 265 264 264 264 264 264 264 264 264 264 264 264 264 263 263 262 262 262 262 262 261 261 261 261 261 261 260 260 260 260 260 259 259 259 258 258 257 257
273 273 272 272 271 271 271 271 271 271 270 270 270 270 270 269 269 269 268 268 268 268 267 267 267 266 266 266 266 266 265 266 265 265 265 265 265 265 265 265 264 264 264 264 264 264 264 264 264 264 264 264 264 264 264 264 263 263 263 263 263 262 262 262 262 262 262 262 261 261 261 261 260 260 260 260 260 260 260 259 259 258 258 258 257
Wind_Speed
28 29 30 30 29 29 29 29 30 31 30 29 28 28 28 29 30 30 31 31 31 31 32 31 31 31 30 30 31 32 33 33 33 32 32 32 31 32 33 33 33 34 33 31 30 30 30 30 28 27 26 25 24 23 22 20 19 17 16 14 13 10 9 9 9 7 5 2 3 5 7 9 11 12 12 13 14 15 16 17 18 19 20 21 22
28 29 29 30 30 30 29 29 29 30 30 31 30 29 29 28 29 29 30 31 32 31 31 31 31 30 30 30 30 31 32 32 33 32 32 32 32 32 32 32 32 32 32 31 30 30 30 31 30 28 27 26 25 24 23 21 19 18 17 14 13 11 9 9 8 6 3 3 5 7 9 10 13 14 14 16 17 17 19 20 21 21 22 23 24
27 28 28 30 31 30 30 30 29 29 30 31 31 31 30 29 29 29 30 31 31 30 30 30 30 29 29 28 29 29 30 31 32 32 32 32 33 33 33 32 32 32 33 32 31 31 32 32 31 30 28 27 26 24 23 21 20 19 18 15 13 11 8 7 7 5 3 5 7 9 11 12 15 15 16 18 19 19 21 23 23 24 25 26 27
26 27 29 30 30 31 32 31 30 30 32 33 32 31 29 28 29 30 31 31 30 29 29 28 27 27 27 26 27 28 29 30 31 32 32 33 33 33 33 32 32 33 34 33 33 33 34 34 32 31 31 29 27 26 24 23 21 20 18 15 12 11 9 7 6 4 4 7 10 12 13 14 15 16 17 19 20 21 23 25 26 26 28 29 30
26 27 29 30 30 31 33 32 32 32 33 33 32 31 29 28 28 29 30 30 29 29 28 27 27 26 26 26 27 27 28 29 30 31 32 32 32 33 33 32 31 32 33 33 34 35 35 35 34 33 33 31 29 27 25 24 21 19 17 14 12 11 9 7 5 4 5 9 12 14 15 16 16 17 18 19 21 23 25 27 28 29 31 32 32
26 28 29 30 31 32 34 34 33 33 33 32 31 30 29 28 29 30 29 29 29 29 28 27 27 26 26 26 27 27 26 27 29 30 31 31 30 31 31 30 30 31 32 32 33 35 35 35 35 35 34 33 31 29 27 24 21 18 16 14 12 10 8 6 4 5 7 10 13 16 18 17 18 19 19 19 21 24 26 29 31 31 31 33 34
27 29 30 31 32 33 35 35 34 33 32 31 30 28 28 28 29 30 29 29 29 29 29 28 26 26 26 27 27 26 25 26 27 29 29 29 29 29 29 29 30 31 31 31 32 34 35 36 36 36 34 33 32 30 27 24 20 16 14 13 11 9 7 4 4 5 8 11 14 17 18 18 18 21 21 20 21 24 25 28 32 33 32 33 35
27 29 29 30 33 35 35 34 33 32 30 29 29 28 28 28 29 29 28 29 29 29 29 27 26 26 26 26 26 25 25 25 26 28 28 27 27 28 28 29 30 30 30 31 33 34 35 36 36 35 33 31 31 30 26 22 18 15 13 11 9 7 6 4 4 6 8 12 15 16 17 18 20 21 22 20 20 24 25 26 30 34 33 33 33
27 28 29 32 35 35 33 32 32 31 30 29 29 29 29 29 29 29 28 28 27 27 27 26 26 26 25 25 25 24 24 25 26 27 27 27 27 27 27 28 29 30 30 31 32 34 35 35 35 33 31 29 29 25 21 17 15 13 12 9 7 7 7 6 6 8 10 13 15 15 16 19 20 20 21 20 20 24 27 26 28 31 31 32 33
27 28 30 33 34 31 30 31 31 30 29 29 29 29 29 29 29 28 28 27 26 25 25 25 25 24 24 24 24 24 25 26 27 27 27 27 26 26 26 27 29 30 31 32 32 32 33 34 33 31 30 29 26 21 18 14 10 8 7 6 5 6 8 8 9 11 12 14 14 14 16 20 20 18 20 22 22 24 26 25 26 28 27 27 32
27 28 30 32 31 29 29 30 30 30 29 29 28 27 27 28 28 28 27 26 26 24 24 24 24 23 23 23 23 23 24 25 26 25 25 24 24 25 26 27 29 30 32 34 34 33 33 33 32 32 31 28 23 19 16 12 8 5 3 3 5 7 8 10 12 14 15 15 15 16 17 21 22 19 20 24 24 22 24 24 23 24 23 23 27
28 28 29 29 28 28 29 29 29 29 28 28 27 26 26 27 27 27 26 26 25 24 24 23 23 22 22 23 23 23 24 24 24 24 23 23 23 24 26 27 29 31 32 35 36 35 35 34 34 34 31 27 21 18 14 10 6 3 3 4 6 7 9 11 14 15 16 16 18 20 18 21 25 21 19 21 22 22 23 24 23 23 24 24 25
28 28 28 28 28 29 29 30 30 29 27 27 25 25 26 27 28 27 27 26 25 24 23 23 22 22 22 23 22 22 22 22 22 21 21 21 22 23 25 27 30 32 32 34 35 36 36 35 36 34 29 23 20 17 13 9 6 4 5 6 7 8 10 12 14 16 17 18 22 25 22 21 25 24 19 20 23 25 25 27 26 25 25 27 28
28 27 28 29 29 29 29 30 30 28 26 25 25 25 26 27 28 27 27 26 25 24 23 22 22 22 22 22 22 22 21 21 21 21 21 22 23 24 25 26 29 30 32 34 36 36 36 37 37 34 28 23 20 17 12 8 6 6 7 9 9 10 11 12 14 15 17 19 22 26 24 22 24 26 24 23 24 25 26 27 27 26 26 29 31
28 28 29 29 29 28 28 29 29 27 25 24 24 25 27 27 27 27 27 26 25 25 24 23 23 22 22 21 21 21 21 20 20 20 20 21 24 24 24 26 29 31 33 35 36 36 36 36 35 33 29 24 20 15 10 7 6 8 10 10 11 11 12 13 13 14 16 17 19 22 23 22 24 25 25 24 23 24 25 26 27 26 28 31 32
27 28 29 28 26 26 27 27 26 25 24 23 24 25 25 26 26 26 25 24 24 23 23 22 22 22 21 20 20 19 19 18 18 17 17 20 23 24 25 27 30 31 33 34 35 35 35 33 32 30 27 23 18 13 8 7 8 9 11 11 11 12 12 12 12 13 14 15 16 18 19 20 20 21 21 21 21 22 24 25 26 26 27 27 28
26 27 26 24 24 24 24 25 24 23 23 23 23 24 24 24 24 25 24 23 22 22 22 21 21 21 20 19 19 18 17 16 16 15 16 20 25 27 28 29 30 30 31 32 33 33 32 30 29 27 23 20 15 10 8 8 9 10 11 12 12 12 12 11 12 12 12 13 14 15 16 16 17 17 17 17 18 19 21 23 24 24 23 21 20
24 23 22 21 22 22 22 23 23 22 22 23 23 23 23 23 23 23 23 23 22 22 21 20 20 19 18 18 17 16 16 15 15 14 16 22 27 29 29 29 29 29 30 30 32 33 32 29 26 23 19 16 12 9 7 8 9 10 11 12 11 10 11 11 11 11 11 13 14 15 15 16 17 17 18 18 17 16 18 21 23 23 20 18 18
20 18 18 18 19 20 20 21 21 21 21 22 22 22 22 22 22 21 21 21 21 20 19 19 18 17 16 15 14 14 14 14 14 14 18 23 27 28 28 29 28 28 29 30 31 32 31 27 23 20 16 13 10 8 7 9 10 10 10 10 9 10 10 9 10 11 12 13 14 15 16 17 18 18 18 18 17 16 16 19 22 21 20 20 21
15 15 16 16 17 18 18 18 19 20 20 20 20 20 20 20 20 20 19 19 18 18 17 16 16 15 14 13 13 13 14 14 14 16 20 24 27 28 29 30 29 29 30 31 30 30 28 26 22 18 14 10 8 7 8 9 9 9 8 8 8 8 8 9 10 10 12 13 14 15 16 17 16 16 16 16 15 14 14 15 17 18 19 21 21
14 15 16 16 16 17 16 16 17 18 18 18 18 18 18 19 19 19 18 17 17 17 16 15 14 14 13 13 13 13 13 14 15 18 21 24 27 28 29 30 30 30 31 31 30 29 27 25 20 16 12 9 8 7 7 7 6 6 6 6 6 6 7 9 10 10 11 12 13 14 15 15 15 15 14 12 11 10 10 11 13 14 16 17 18
16 17 17 17 17 16 16 16 17 17 18 18 18 18 18 17 18 18 18 17 17 16 16 15 14 13 12 12 12 12 12 13 16 19 21 23 26 27 28 28 29 30 31 30 28 27 24 20 16 12 10 8 7 6 5 5 4 5 5 4 3 4 6 8 10 11 12 12 12 12 12 12 12 11 10 9 9 11 13 14 15 15 15 15 16
18 18 18 18 17 16 16 17 17 18 18 19 19 19 18 17 18 18 18 18 18 17 16 15 15 14 13 12 12 12 12 13 16 18 20 22 24 24 24 25 26 29 30 28 25 22 19 15 12 11 9 8 7 6 6 5 5 5 5 3 2 4 7 9 10 11 10 9 8 8 9 9 10 10 11 12 14 17 18 18 18 17 17 16 16
19 19 19 18 18 17 17 17 17 18 18 19 19 19 19 18 18 18 19 19 19 18 17 17 17 16 15 13 12 13 14 15 17 18 19 21 22 22 22 23 24 25 25 23 21 18 15 13 12 11 10 8 7 6 6 5 5 5 5 4 5 6 8 8 8 7 5 5 6 7 8 9 10 11 13 15 16 18 18 17 17 17 18 18 18
20 20 20 20 20 19 19 18 18 18 18 18 18 19 20 19 19 18 18 19 19 18 17 17 17 16 15 14 14 14 15 17 18 18 19 20 21 21 21 21 21 20 19 18 17 16 15 13 12 10 9 8 6 5 5 5 5 5 5 4 4 4 4 3 2 2 2 4 5 6 7 8 9 11 14 16 17 18 18 17 17 17 18 19 19
21 22 22 21 21 21 21 20 18 18 18 17 18 19 20 20 19 19 18 18 17 17 17 16 16 16 16 16 16 16 17 18 19 20 20 20 20 18 18 17 16 16 16 16 16 15 14 12 11 10 8 6 5 5 6 7 6 5 4 4 3 3 2 1 0 1 3 3 4 5 6 9 11 13 15 16 16 16 16 17 18 19 19 21 21
23 23 23 23 22 21 22 22 20 19 18 17 18 18 18 18 18 18 18 18 17 17 17 17 17 18 17 17 18 19 19 20 21 22 22 22 20 18 17 16 16 16 17 17 16 15 13 11 9 8 6 6 7 8 9 9 8 7 6 5 4 4 3 2 2 2 1 2 4 6 9 11 13 14 15 15 15 14 13 15 17 18 19 20 21
23 24 23 23 22 21 22 22 21 20 19 18 19 18 17 17 18 17 17 18 18 18 18 18 18 19 19 20 20 19 19 20 22 23 23 23 21 20 18 18 17 17 17 17 15 13 12 10 9 9 9 11 12 12 11 10 9 9 7 4 3 2 1 1 1 1 2 4 6 8 11 12 13 13 13 13 12 12 12 13 15 16 17 17 18
24 24 23 23 22 22 22 21 21 21 21 19 18 16 16 16 16 15 14 14 15 16 17 17 18 18 19 20 21 21 21 21 22 22 22 22 21 19 18 18 17 16 16 15 15 14 13 12 13 14 15 16 16 14 12 11 10 8 5 4 3 1 1 1 2 3 5 6 7 10 11 11 11 11 12 11 11 11 13 13 13 14 15 15 16
22 22 22 22 23 23 22 22 22 23 23 22 21 19 16 14 14 14 13 10 10 11 13 14 15 16 17 18 18 19 21 22 21 20 19 18 17 16 16 16 16 16 16 15 15 15 16 17 18 18 18 17 16 14 13 12 11 8 6 5 3 2 3 4 5 5 5 6 8 9 9 9 9 10 11 11 11 11 11 10 11 12 13 14 15
21 20 21 22 22 22 23 23 24 24 24 24 24 23 21 17 14 12 12 11 9 10 10 11 12 13 13 14 13 13 15 17 18 18 17 16 15 15 15 16 16 16 17 17 17 18 20 21 20 18 17 16 15 14 13 12 11 10 9 7 5 5 5 6 6 5 6 7 7 7 7 8 8 9 10 10 10 10 10 9 10 10 11 12 14
22 21 21 22 23 23 24 24 24 25 24 24 24 25 24 22 18 14 11 10 10 10 10 10 10 10 10 11 11 12 12 14 16 16 16 16 15 15 16 16 16 17 17 18 19 20 21 20 19 18 16 15 15 14 13 11 11 11 11 9 8 7 8 7 6 6 6 6 6 6 6 7 7 8 8 8 8 9 10 10 10 10 10 11 12
22 23 23 24 24 24 25 25 25 25 25 24 24 25 24 24 23 21 18 15 13 12 11 10 11 11 10 9 11 13 14 15 16 17 17 17 17 17 17 17 18 18 17 18 19 20 18 18 18 18 16 15 14 14 13 12 12 12 11 10 10 9 8 7 6 6 5 5 5 5 5 6 6 7 7 6 7 8 9 10 9 9 10 11 13
22 24 24 25 25 25 25 25 25 24 24 24 24 24 23 23 24 24 23 20 18 16 14 12 11 12 12 12 13 14 16 17 18 18 18 18 17 18 18 17 16 15 15 16 18 19 18 17 17 17 15 15 15 15 14 13 13 12 11 11 10 9 7 6 5 5 4 4 5 5 5 6 6 6 6 6 6 7 8 8 8 9 10 11 13
21 23 23 24 25 25 25 25 25 24 24 23 23 23 23 23 23 22 22 21 21 20 18 15 13 13 14 15 15 16 17 18 18 18 18 18 17 18 19 19 18 16 14 14 15 16 16 17 17 17 16 16 16 15 13 13 13 13 12 11 9 7 6 6 5 5 5 5 5 5 5 6 6 6 6 6 6 7 7 7 7 9 10 10 12
21 23 23 23 24 25 25 25 25 25 24 23 22 23 23 22 21 21 20 21 22 22 21 18 16 15 15 15 15 16 16 16 16 17 17 17 17 18 21 22 21 19 17 16 15 15 16 16 17 17 17 16 15 14 13 13 13 12 11 9 8 7 6 5 6 6 6 5 6 6 6 7 7 7 7 6 6 6 6 6 7 8 9 9 10
22 24 24 23 24 24 24 24 24 24 23 23 23 23 22 21 21 21 22 22 22 23 23 23 22 21 20 18 18 18 19 19 19 18 17 16 15 16 17 18 18 18 18 18 17 17 18 18 17 16 16 15 15 15 14 14 13 11 9 8 7 6 6 6 7 7 7 7 7 7 7 7 7 7 7 6 6 5 6 6 7 9 9 9 9
22 24 24 24 24 24 25 25 24 23 23 23 23 23 23 22 21 22 23 23 24 24 24 24 24 24 23 22 21 22 22 22 22 21 19 17 15 14 14 14 15 15 16 17 18 18 18 17 16 16 15 15 15 15 14 13 11 10 8 7 7 7 7 8 8 8 8 8 8 9 9 8 8 7 8 7 7 6 7 7 8 9 10 9 9
21 22 23 24 24 24 25 25 25 24 24 24 23 23 23 23 23 23 24 24 24 24 23 23 23 23 23 22 22 22 21 20 20 19 18 16 14 14 14 14 14 15 15 16 17 17 17 16 16 16 16 16 15 14 13 11 10 9 8 8 8 8 9 9 9 10 10 10 10 10 10 9 9 9 9 9 8 8 8 9 10 11 11 11 11
20 21 22 22 23 23 24 25 25 25 24 24 24 24 24 24 24 25 25 25 24 23 23 22 22 22 22 22 22 22 20 19 17 17 16 15 14 14 15 16 16 15 15 15 15 15 15 15 15 15 15 15 14 13 11 10 9 8 9 9 9 9 10 10 11 11 11 11 11 11 11 11 10 10 11 10 9 9 9 10 11 11 11 11 12
19 20 21 21 21 22 23 23 24 24 24 24 24 24 24 24 24 25 25 25 24 23 22 21 21 21 21 20 19 18 17 16 15 14 14 13 14 14 15 15 15 14 13 13 13 14 14 15 15 15 14 14 13 11 10 10 9 9 10 10 10 11 11 11 12 12 12 12 13 13 13 12 12 12 12 11 11 11 11 12 13 13 12 12 13
19 20 20 20 20 21 22 22 22 22 22 22 23 23 23 23 24 25 25 25 24 23 22 20 19 19 19 17 14 12 13 13 12 13 13 13 13 13 13 13 13 12 12 13 13 14 14 14 15 14 13 12 11 10 10 10 10 10 11 11 11 12 12 12 13 13 13 14 14 14 14 14 14 14 14 13 13 13 13 14 14 13 13 14 14
18 19 19 19 20 20 20 20 20 20 20 20 20 20 20 21 22 23 23 23 23 22 21 20 18 18 17 15 12 11 12 12 12 12 12 11 12 12 12 12 12 12 12 13 13 13 14 14 13 13 12 11 10 10 10 11 11 11 12 12 13 13 13 13 14 14 15 15 15 15 15 15 15 16 16 15 15 15 14 15 15 14 14 15 15
18 19 19 19 19 19 18 19 19 19 18 18 18 17 18 18 19 20 20 20 20 19 19 18 17 16 16 16 14 14 14 13 12 11 11 11 11 11 11 12 12 12 13 13 13 14 14 13 13 12 11 11 11 11 11 12 12 13 13 14 14 14 15 15 14 14 15 16 16 16 16 16 17 17 16 16 16 16 16 16 16 16 16 16 15
18 19 20 20 19 19 18 19 19 18 18 17 16 16 15 15 16 16 16 16 16 16 16 16 15 16 17 17 16 16 15 13 11 11 11 11 11 11 11 12 12 13 13 14 14 14 14 13 13 13 12 12 12 12 13 13 14 14 14 15 15 16 15 15 14 14 15 16 17 17 17 17 18 18 18 17 16 16 16 17 16 16 16 16 16
19 19 20 20 20 19 19 18 17 17 16 16 15 15 14 13 13 13 14 14 14 14 15 14 14 16 17 17 15 15 13 12 10 10 10 10 11 11 12 13 13 13 14 15 15 14 14 13 13 13 13 13 13 13 14 15 15 15 16 16 17 16 16 15 16 16 17 18 18 18 18 19 19 19 19 19 18 17 17 17 17 17 17 17 17
19 19 19 18 18 18 17 16 16 15 15 14 14 14 13 13 13 13 13 13 13 13 13 13 13 14 15 15 14 13 11 9 9 9 9 10 10 11 12 13 13 14 14 14 14 14 14 13 14 14 14 14 14 15 15 15 16 17 17 18 18 18 17 17 18 19 19 19 19 19 20 20 21 21 20 20 19 19 19 19 19 19 19 18 18
18 18 17 16 16 16 16 15 15 15 15 14 14 13 13 13 13 12 12 12 12 11 11 10 11 11 11 12 11 11 9 8 8 9 10 10 11 12 13 13 13 14 14 14 14 14 14 14 14 14 15 15 15 16 16 17 17 18 18 18 19 19 19 19 20 20 20 20 20 21 21 22 22 22 22 21 21 20 20 20 20 19 18 18 18
17 17 17 17 16 17 16 16 15 15 15 14 14 14 13 12 12 11 11 10 9 9 8 8 8 9 9 9 9 9 8 9 9 10 11 11 11 12 13 13 13 14 15 15 15 15 15 15 15 16 16 16 17 17 18 18 19 19 19 19 19 19 20 20 21 20 20 20 21 22 22 23 23 23 23 22 21 21 21 21 21 20 19 18 18
17 18 18 18 17 17 16 15 15 15 14 13 13 13 12 11 10 9 9 8 7 7 7 6 7 7 7 7 8 8 8 9 10 11 11 12 12 13 13 14 15 15 16 16 16 16 16 17 17 17 18 18 18 19 19 20 20 20 20 20 19 20 20 21 21 21 20 21 22 22 23 24 24 24 24 23 22 21 21 21 21 21 20 20 19
19 18 18 18 18 17 16 15 15 14 13 12 12 11 11 10 8 7 6 6 5 5 5 5 5 6 6 7 7 8 9 10 11 12 12 13 13 14 15 15 16 16 17 17 17 17 18 18 19 19 19 20 20 20 21 21 21 21 21 20 20 20 20 20 21 21 21 21 22 23 23 24 25 25 25 24 22 22 22 21 21 20 20 19 19
Wind_Direction
217 219 220 221 223 224 225 225 223 224 226 227 228 228 229 230 231 230 231 232 231 229 230 230 231 234 235 235 236 236 235 232 231 230 229 228 225 223 221 217 214 212 210 209 206 203 200 195 192 190 187 184 180 175 173 171 170 167 168 170 166 162 159 143 130 132 146 193 252 257 263 267 271 276 282 289 292 293 295 299 301 301 303 305 306
218 219 220 222 224 225 225 223 222 224 225 228 229 228 227 228 229 230 229 230 230 230 231 231 233 234 234 235 236 236 236 233 231 230 228 226 221 218 217 214 211 208 207 205 202 200 198 194 189 185 184 184 179 174 171 166 163 161 159 157 152 147 146 142 136 140 172 244 269 270 271 272 276 281 287 292 297 297 297 301 304 303 304 306 307
219 221 222 224 226 226 227 224 222 223 225 227 228 228 227 227 229 230 229 229 230 232 232 232 233 233 233 235 235 235 235 233 230 228 227 224 219 217 215 214 211 208 205 204 200 198 196 192 186 181 181 181 175 170 166 161 160 156 151 149 145 140 138 140 141 149 199 250 264 270 272 274 280 287 291 293 296 297 298 302 304 302 304 306 305
220 222 224 227 228 228 228 226 223 223 225 226 227 227 228 228 229 230 229 230 231 231 231 231 231 231 232 234 235 235 234 231 228 226 225 223 220 217 216 215 214 211 208 205 200 197 194 189 184 181 180 177 169 165 162 158 156 151 147 148 147 144 144 146 149 164 219 252 265 272 277 280 283 288 290 290 293 295 298 300 301 300 303 303 301
220 223 225 228 230 231 230 227 224 224 225 227 228 228 229 228 228 228 228 229 229 229 228 228 229 231 234 237 238 236 233 230 227 226 224 223 220 218 217 215 214 212 210 207 201 198 196 190 184 181 181 175 166 162 159 155 151 149 148 151 153 153 153 156 172 211 244 260 270 277 281 285 287 288 286 286 290 293 296 297 297 298 301 301 301
221 223 226 228 231 232 232 229 225 225 226 228 228 229 230 229 228 227 228 228 228 228 228 228 230 233 237 240 238 234 231 228 227 226 223 220 217 217 216 215 213 211 210 208 203 200 197 193 187 183 182 175 165 160 157 153 151 153 156 159 160 158 156 166 201 237 255 267 275 279 283 288 290 287 284 286 289 291 293 295 296 296 297 300 301
221 224 226 228 231 233 233 231 228 226 226 228 228 228 228 227 227 228 230 230 230 229 228 229 233 237 239 238 234 230 228 228 227 225 221 218 215 214 214 212 210 209 209 207 203 200 198 195 189 184 182 176 166 158 155 153 155 160 164 165 163 157 155 173 216 249 262 270 275 279 284 289 289 286 287 289 288 286 287 289 292 295 297 298 299
221 224 226 228 232 234 234 233 231 228 227 227 227 226 226 226 228 229 230 231 230 229 229 231 234 237 237 234 229 227 227 227 225 222 219 217 215 215 214 212 208 206 205 204 202 200 198 195 188 183 180 174 165 159 157 158 159 162 165 166 164 163 168 186 222 253 263 267 271 277 283 286 285 284 287 286 281 281 284 283 285 291 296 296 296
222 223 225 230 234 235 236 236 233 231 228 227 226 226 226 227 228 228 229 230 229 229 230 232 234 234 232 229 226 225 225 226 225 221 217 214 214 215 215 212 208 204 200 198 198 197 194 190 185 181 174 166 160 158 159 161 162 162 165 170 177 184 194 210 230 249 258 260 264 272 278 278 279 282 284 282 278 283 289 287 284 288 295 296 296
223 224 227 232 234 235 237 237 234 231 228 227 226 225 225 226 226 226 227 228 228 228 227 229 231 231 228 225 224 224 225 227 227 223 220 218 217 215 213 210 207 202 195 190 190 191 189 186 181 173 164 157 156 156 157 159 161 162 168 183 205 213 216 225 236 247 253 253 257 266 271 273 276 279 282 285 285 289 292 291 289 293 298 299 298
226 227 230 233 233 233 235 235 233 230 228 227 226 224 224 224 224 224 223 225 226 225 225 226 228 229 228 225 224 225 226 227 225 222 219 219 218 215 212 208 203 200 194 188 185 185 183 180 173 164 159 158 158 159 160 161 162 166 183 219 241 240 235 236 241 247 250 252 259 264 266 272 279 282 284 289 292 293 294 295 297 300 303 301 298
229 230 232 232 231 231 232 232 231 230 228 226 224 222 222 222 221 220 219 221 222 222 223 225 227 228 227 225 224 226 228 228 224 222 220 218 217 216 212 207 201 197 193 188 184 181 178 172 165 161 162 162 163 165 166 168 172 189 230 249 253 255 253 252 253 253 254 258 266 268 267 276 283 286 290 295 298 300 299 299 300 301 301 296 292
230 230 232 231 230 230 230 229 229 228 226 224 222 219 218 218 217 216 216 218 220 220 222 224 224 225 224 223 224 225 227 227 225 224 220 214 212 212 209 206 201 196 192 187 183 179 174 167 162 162 164 167 172 174 173 177 190 213 240 250 255 260 262 263 263 263 264 266 269 272 274 279 284 288 293 296 298 301 301 300 300 299 296 292 289
228 230 231 230 228 228 227 227 227 226 223 221 219 216 216 215 215 214 214 214 216 217 219 220 222 224 223 222 223 222 223 224 223 222 218 211 208 207 205 204 200 196 193 190 185 180 175 169 165 164 167 174 180 180 181 192 211 232 244 249 258 266 269 270 269 269 272 272 273 277 282 283 286 291 295 296 296 298 299 298 298 298 294 291 291
227 229 228 226 224 224 224 224 223 222 219 217 215 214 214 213 212 212 211 212 215 216 217 219 220 221 221 220 221 222 224 224 225 225 220 212 207 204 203 201 198 195 194 191 187 182 176 171 168 168 173 180 182 182 189 211 232 244 249 254 266 278 280 280 280 279 282 284 284 287 291 292 292 295 298 300 300 299 298 296 296 297 297 296 297
224 224 222 221 220 220 220 220 218 216 214 212 212 212 211 210 210 210 209 210 213 214 214 216 217 216 216 218 219 220 223 225 226 225 218 207 201 198 198 196 193 193 192 191 187 181 175 171 170 173 177 179 179 185 203 231 245 251 257 265 278 286 288 288 291 293 294 296 296 296 296 295 295 296 299 301 300 300 300 297 296 297 296 294 294
220 219 218 218 217 216 216 215 213 211 209 208 208 208 209 210 209 208 206 205 207 208 209 210 212 212 212 213 213 214 219 223 222 219 208 199 195 193 192 191 190 190 190 189 184 177 172 172 175 176 176 176 179 193 217 240 251 259 267 276 285 292 296 302 306 306 306 305 305 304 303 302 300 298 300 300 301 303 301 295 296 297 291 287 290
216 216 216 216 214 212 211 210 208 206 205 206 206 206 208 208 208 207 206 204 204 205 205 204 205 207 208 209 211 214 217 217 216 213 203 195 193 191 187 185 184 185 184 183 180 175 172 175 177 175 174 176 185 203 225 245 259 266 272 282 292 298 306 313 313 312 312 311 313 314 315 316 315 312 310 308 306 304 294 286 290 293 289 289 295
214 213 213 212 209 207 207 207 206 204 204 204 204 204 205 204 204 203 203 204 202 200 199 198 197 200 206 210 213 216 214 212 211 206 196 192 192 191 187 182 179 178 178 176 174 173 172 173 175 177 178 183 193 210 234 254 263 267 275 285 294 300 310 316 316 319 320 318 320 321 320 320 320 316 313 310 305 300 292 287 289 291 289 291 295
208 206 205 202 200 201 202 203 204 203 202 200 199 200 199 198 196 195 195 197 196 192 192 193 192 195 202 206 208 210 209 205 201 197 192 190 190 189 187 184 179 175 174 171 169 169 170 173 176 181 185 191 202 218 239 254 259 266 277 287 295 306 318 323 323 324 322 319 322 322 320 322 323 320 319 319 315 310 306 300 296 294 292 292 292
194 191 190 189 189 193 195 197 198 197 195 193 190 190 193 193 190 189 187 187 186 184 185 187 187 188 193 198 200 203 205 200 192 189 190 191 191 189 188 186 183 177 171 168 168 169 172 175 180 185 191 200 211 225 236 244 254 268 278 287 301 315 316 310 307 307 310 314 318 318 318 321 325 328 331 334 335 331 323 317 313 310 306 305 306
182 180 179 179 180 182 184 186 186 185 183 183 180 178 183 186 185 184 182 179 178 176 176 177 175 174 179 188 193 196 199 195 187 186 188 191 192 192 190 189 186 179 171 167 169 172 174 179 183 186 191 196 201 208 210 206 215 237 253 272 299 301 286 283 290 298 307 313 315 318 322 327 333 340 344 345 344 339 335 333 331 328 322 318 317
175 173 171 170 170 171 172 173 174 173 173 175 175 172 174 177 178 178 177 173 170 167 166 167 165 162 164 173 182 186 187 187 185 185 187 188 189 191 191 189 184 179 173 170 171 174 175 177 177 175 177 181 184 187 191 195 206 218 227 235 250 261 268 278 291 301 306 311 316 327 336 341 346 349 345 342 338 334 333 335 333 330 327 324 321
168 163 161 159 157 158 160 161 163 165 166 169 169 166 166 168 170 172 173 170 164 160 160 162 159 155 154 158 167 173 175 178 182 182 182 184 184 185 185 181 177 175 173 171 171 171 169 169 169 168 170 173 177 182 189 196 203 206 211 225 247 260 270 281 290 294 300 313 329 340 342 339 340 340 336 333 329 325 325 328 328 328 326 326 327
159 152 150 148 147 148 149 151 155 159 162 166 164 160 161 162 162 164 166 164 159 155 154 155 153 150 148 148 153 160 164 167 170 171 172 176 177 175 173 171 170 171 169 166 166 166 166 166 166 165 165 166 167 170 175 179 183 191 204 222 242 251 252 252 258 282 323 340 343 341 335 327 322 319 317 318 320 323 327 329 330 331 329 328 329
149 144 142 141 142 144 143 143 147 152 157 162 161 158 159 158 156 157 158 156 153 150 149 151 151 149 149 150 153 156 158 159 160 161 164 166 166 165 164 163 165 166 162 159 160 160 161 163 162 160 158 161 163 162 161 161 163 171 183 187 178 167 162 158 132 6 360 352 337 321 309 304 305 309 313 319 326 335 337 333 330 331 331 330 329
142 139 138 137 139 141 138 137 140 143 147 151 150 150 154 154 150 151 153 152 151 152 153 155 156 154 154 155 157 158 159 161 161 162 164 164 162 161 160 160 161 161 156 154 155 157 157 158 158 157 153 149 147 146 144 142 145 151 155 150 139 136 134 118 83 50 360 313 294 288 291 299 309 318 323 326 332 338 335 329 329 330 330 332 332
139 136 134 134 135 136 134 134 134 135 137 140 141 143 149 150 149 152 160 162 160 159 161 162 163 162 160 159 159 158 162 168 170 170 171 170 167 166 165 164 166 166 163 160 160 160 160 157 152 149 146 141 137 135 132 134 144 154 157 152 147 147 143 133 137 229 263 269 278 290 302 311 319 322 322 322 327 329 325 325 329 330 333 339 340
139 135 134 134 134 134 133 132 131 130 130 130 132 136 144 149 148 149 160 172 174 169 167 167 168 169 169 168 167 165 168 175 179 178 178 178 179 179 178 176 178 178 175 174 171 165 161 156 151 147 144 140 138 139 140 144 149 153 158 163 169 184 285 253 240 248 260 275 294 306 313 317 317 315 315 318 322 323 325 330 334 334 337 343 341
135 134 135 135 136 135 135 134 134 133 131 128 124 122 128 138 141 137 140 155 170 173 170 169 171 173 173 174 178 179 180 180 179 180 183 186 188 190 188 186 186 183 178 178 175 166 158 153 151 150 149 149 151 155 157 159 158 158 165 179 199 229 240 234 236 247 267 290 305 310 308 308 308 308 312 317 322 328 335 338 337 337 340 342 338
136 138 139 139 140 140 138 137 137 136 134 132 128 121 116 116 120 126 131 134 143 157 165 167 171 176 176 174 176 181 184 181 179 182 186 187 186 186 185 183 183 179 175 172 166 161 157 154 154 157 159 161 165 168 167 168 173 179 184 193 211 226 226 227 236 255 280 297 303 300 295 295 299 303 310 319 327 334 340 340 337 339 340 339 334
144 144 145 145 146 145 143 142 141 139 137 136 133 128 121 112 105 105 116 126 132 141 150 156 161 169 176 176 171 168 172 176 178 180 182 181 179 177 175 173 170 168 170 169 163 160 160 160 161 166 170 170 173 176 178 182 187 191 195 200 207 216 222 231 246 267 285 292 290 287 286 287 293 300 311 324 331 332 333 336 338 339 336 333 329
151 149 150 149 149 148 147 146 145 144 142 140 138 135 131 123 114 108 105 108 114 121 130 143 152 155 158 167 171 167 165 167 171 172 172 171 168 164 162 161 159 160 166 169 165 163 166 169 170 174 177 177 180 183 187 191 193 196 204 209 211 217 226 239 256 270 279 279 278 280 279 281 290 302 312 322 323 320 322 329 334 335 331 327 323
157 155 155 154 152 151 151 150 149 148 147 145 143 140 136 133 128 122 116 112 109 109 113 123 137 144 144 147 154 157 156 157 161 163 161 159 158 155 153 154 157 163 172 176 172 169 173 177 178 181 184 186 186 188 189 192 196 203 210 214 214 219 228 239 252 263 266 265 266 269 270 272 281 291 299 305 306 308 315 323 327 326 324 320 317
162 160 159 158 156 154 154 154 153 151 150 148 147 143 140 137 134 131 128 124 120 116 114 117 124 133 136 138 141 145 148 150 152 154 154 153 153 155 156 157 162 171 179 182 180 180 182 185 186 189 191 189 189 192 194 198 204 210 213 214 215 218 225 236 248 255 258 258 258 260 263 266 271 276 281 289 295 301 308 313 312 311 312 311 310
165 161 161 161 159 157 157 157 156 154 153 152 150 148 145 142 139 136 134 131 128 126 125 124 124 126 129 132 135 138 142 144 146 148 150 150 153 160 164 165 168 173 176 180 184 187 191 194 193 192 192 192 195 200 205 210 213 214 213 213 217 221 227 236 245 250 254 256 257 256 255 257 263 267 270 275 284 289 293 295 293 294 298 300 301
167 163 163 163 161 159 158 157 157 157 155 154 154 151 147 145 145 142 138 136 134 133 133 134 135 133 131 133 138 141 143 145 147 149 151 155 164 175 178 177 180 182 183 186 191 193 195 197 197 197 199 201 204 208 213 214 214 213 211 214 222 230 234 237 242 247 250 251 253 256 256 254 256 259 263 270 278 282 283 283 281 283 288 291 291
171 168 166 165 163 161 159 157 157 159 158 157 157 154 151 151 150 147 145 143 141 139 140 143 145 144 142 146 152 155 154 155 157 158 161 167 179 186 186 189 194 197 197 199 202 203 202 202 204 207 210 212 213 214 214 212 210 212 217 221 225 230 234 237 242 245 248 249 250 252 254 255 255 256 260 266 272 277 279 278 277 281 285 287 286
172 169 168 168 166 164 162 160 160 160 160 159 160 159 157 156 154 153 152 150 149 148 149 151 154 155 156 160 165 169 168 168 171 174 177 184 193 195 194 197 203 207 209 209 209 211 211 211 212 213 214 215 214 213 213 213 213 218 225 229 229 232 236 239 243 245 247 250 252 252 253 256 257 256 258 261 266 269 269 268 271 276 279 283 286
170 167 167 168 167 166 166 165 164 165 164 164 165 165 164 163 162 161 159 158 158 159 160 161 165 168 169 170 174 179 181 183 188 192 195 198 203 205 204 206 209 213 217 217 216 217 218 217 216 215 214 214 214 213 215 220 223 226 231 234 237 239 241 243 245 247 249 251 254 255 256 257 257 256 256 259 262 263 263 265 269 273 275 279 284
168 165 166 169 169 168 167 167 168 170 171 171 171 170 170 170 169 168 166 165 166 166 167 170 174 177 178 180 182 187 193 195 198 200 202 203 205 208 209 212 216 219 222 223 223 221 220 219 218 217 215 215 217 219 222 227 231 235 238 241 242 244 246 246 247 250 252 254 256 259 260 259 259 259 259 261 260 258 259 263 266 270 274 276 279
169 166 166 168 169 168 167 168 171 173 174 175 175 175 175 175 175 173 172 171 171 170 170 173 177 180 183 185 186 192 201 204 202 201 204 207 211 214 216 217 220 223 224 225 226 226 225 223 222 220 221 223 226 230 234 238 241 243 244 246 247 248 248 250 251 253 255 255 257 259 261 260 260 260 260 261 261 260 260 262 262 265 269 272 276
171 167 165 166 168 168 168 169 171 172 174 175 177 178 179 179 178 177 176 174 174 174 174 175 179 182 184 183 187 200 211 214 212 210 212 215 218 220 222 223 225 227 227 228 228 229 229 229 228 228 231 234 237 242 246 248 249 250 249 250 251 252 253 253 254 255 256 257 258 259 260 261 261 261 261 261 261 263 263 263 264 265 266 270 275
169 166 165 164 165 166 167 169 170 171 172 173 174 175 178 178 177 177 177 175 177 179 181 182 185 185 180 180 191 206 215 219 220 219 221 224 225 225 226 227 230 232 232 232 232 231 232 234 235 237 239 242 245 247 250 251 251 253 254 254 254 255 256 257 258 260 261 262 261 260 260 261 261 261 261 260 260 262 262 262 263 266 268 270 273
166 164 162 161 161 162 163 166 168 168 168 167 166 166 170 174 176 177 179 179 180 183 186 188 190 187 182 185 196 208 215 221 227 228 229 230 229 229 230 232 234 235 235 235 236 236 237 239 242 245 247 250 252 253 254 255 256 256 256 257 258 259 261 264 265 264 262 261 261 261 262 262 263 263 264 264 262 261 262 263 264 265 268 270 271
162 160 159 158 157 157 157 159 162 163 163 162 161 160 162 167 171 173 176 179 181 183 185 187 187 186 187 192 202 212 219 226 229 229 229 231 232 234 236 237 236 237 238 238 239 241 242 245 248 252 253 255 257 257 256 257 258 258 258 259 261 262 264 264 263 262 261 261 263 264 263 263 263 264 265 266 265 263 262 263 264 264 266 268 269
156 155 154 153 151 149 149 150 152 153 154 155 156 155 156 158 162 166 169 171 174 177 180 182 186 190 195 202 211 221 228 230 228 227 233 239 242 242 242 242 241 241 243 244 245 248 250 253 255 258 259 259 260 260 259 258 258 259 260 261 262 264 264 263 262 262 263 264 264 264 264 263 264 265 265 265 264 263 262 262 262 264 265 266 268
148 146 144 144 143 141 140 141 143 143 144 144 145 147 148 150 153 156 160 164 168 173 177 182 189 197 204 211 219 228 233 233 233 239 246 250 251 250 249 250 250 249 250 253 255 257 260 262 263 264 264 264 264 264 264 263 262 262 261 262 263 264 263 262 262 262 262 262 262 263 263 264 264 264 264 264 263 263 263 264 264 265 266 267 269
138 136 135 135 135 135 136 138 138 138 138 139 140 139 141 144 146 149 154 160 166 172 179 187 195 204 213 221 227 235 240 242 247 253 256 256 256 256 256 257 258 258 259 262 263 265 267 268 269 269 270 270 271 270 269 269 268 268 267 266 266 265 263 261 261 261 260 260 260 260 261 263 264 264 264 265 264 263 264 264 265 267 267 266 267
129 129 130 130 130 131 133 134 133 133 135 137 138 137 138 141 143 146 153 160 166 174 185 196 205 215 225 232 237 243 249 251 254 258 260 260 260 260 260 261 262 264 266 268 270 271 273 274 275 276 276 276 276 276 275 274 274 273 272 271 269 267 265 263 262 262 261 261 261 262 262 263 265 265 265 265 264 263 263 264 265 266 266 265 266
122 123 124 124 124 126 127 127 126 127 130 132 133 135 137 139 141 145 153 162 170 182 195 207 218 227 235 242 246 249 252 254 256 258 260 262 263 264 265 267 267 269 271 273 274 276 277 279 280 281 280 280 280 279 278 278 278 277 277 275 272 269 268 266 265 265 264 264 264 265 264 264 265 265 266 266 265 264 265 265 265 264 265 265 264